Погода в Бенешове

Чехия     49°47′08″N   14°41′21″E
темп.,
°C
ветер,
м/с
пор.,
м/с
влажн.,
%
обл.,
%
осадки,
мм/ч
давл.,
гПа
погр.,
м
17 июня, чт
чт1723:00+17юв228666 0.0 101717
02:00+15юв227836 0.0 101719
05:00+14юв22835 0.0 101712
08:00+20юв26705 0.0 1017287
11:00+24юв56545 0.0 10171172
14:00+26юв67500 0.0 10161516
17:00+26юв56585 0.0 10161336
20:00+21вюв48735 0.0 1016192
18 июня, пт
пт1823:00+19вюв515710 0.0 1017419
02:00+16вюв368238 0.0 1016109
05:00+14вюв368811 0.0 101684
08:00+20юв514705 0.0 1016612
11:00+24ююв79575 0.0 10161014
14:00+26ююв67542 0.0 10151475
17:00+26юв56590 0.0 10141173
20:00+22вюв38740 0.0 1014179
19 июня, сб
сб1923:00+18вюв258579 0.0 101679
02:00+18ююв227573 0.0 101519
05:00+18ю117335 0.0 101511
08:00+21ююв13700 0.0 1016260
11:00+25ю22611 0.0 1016656
14:00+28ююз11505 0.2 10151494
17:00+27всв335812 0.0 1014730
20:00+25в226849 0.0 101412
20 июня, вс
вс2023:00+20юв117812 0.0 101511
02:00+18всв2279100 0.0 101411
05:00+17ююв1183100 0.0 101311
08:00+22юв247012 0.0 1012239
11:00+27юв57575 0.0 10101195
14:00+28юв67523 0.0 10091531
17:00+27юв68595 0.0 10081538
20:00+24вюв613705 0.0 1006612
21 июня, пн
пн2123:00+22юв71669100 0.0 1006596
02:00+18зюз4993100 1.0 1009376
05:00+17ююз3493100 0.1 100892
08:00+19зюз228745 0.1 1009267
11:00+23всв336718 0.0 1008973
14:00+24вюв336754 0.1 10071096
17:00+25всв456859 0.5 10061219
20:00+23в23818 0.6 100576